Location: Lake of the Woods (North-East)
(49.6672°N, 94.8656°W)
Time: 17:33:30
(UTC-05:00)

Daily predictions for brighter satellites

Satellite Brightness Start Highest point End
(mag) Time Altitude Azimuth Time Altitude Azimuth Time Altitude Azimuth
USA 234 4.2 22:02:27 10° ENE 22:08:45 52° NNW 22:15:03 10° W
USA 229 DEB 3.8 22:03:25 10° SSW 22:10:17 68° SE 22:17:15 10° NE
USA 229 3.8 22:03:32 10° SSW 22:10:23 67° SE 22:17:21 10° NE
SL-16 R/B 4.0 22:10:21 10° NW 22:15:04 28° WSW 22:19:47 10° SSW
Cosmos 1908 4.1 22:11:41 10° NNW 22:15:29 51° W 22:19:16 10° S
Cosmos 2360 Rocket 2.6 22:09:59 10° NW 22:15:34 63° WSW 22:21:08 10° SSE
Cosmos 1500 Rocket 4.4 22:16:33 10° SSW 22:20:50 54° WNW 22:25:12 10° N
SeaSat 1 4.3 22:17:55 10° E 22:21:36 21° NE 22:25:17 10° N
Cosmos 968 Rocket 4.4 22:17:18 10° SW 22:22:22 53° WNW 22:27:33 10° NNE
NOAA 11 4.3 22:17:31 10° SSE 22:22:55 72° ENE 22:28:23 10° NNW
NOSS 3-1 (A) 4.3 22:25:16 10° S 22:30:14 28° ESE 22:35:36 10° ENE
Meteor 1-4 Rocket 3.3 22:27:06 10° N 22:30:44 41° ENE 22:34:10 11° SE
Aureole 3 4.3 22:27:16 10° S 22:33:54 83° E 22:39:08 10° NNE
Cosmos 2242 Rocket 4.0 22:30:27 10° N 22:34:49 51° ENE 22:39:05 11° SSE
Cosmos 1674 3.6 22:32:28 10° SSW 22:36:14 52° WNW 22:40:02 10° N
SPOT 5 4.1 22:36:50 10° SSW 22:41:04 36° W 22:45:33 10° NNW
Cosmos 1300 2.8 22:38:08 10° NNW 22:42:01 81° W 22:45:51 10° S
Cosmos 1626 4.0 22:40:11 10° SE 22:42:28 16° E 22:44:51 10° NE
SL-08 RB Rocket 3.7 22:41:01 10° SSE 22:45:30 82° WSW 22:50:02 10° NNW
Cosmos 2227 Rocket 3.6 22:42:28 11° SE 22:46:08 20° E 22:50:06 10° NE
DELTA 2 DEB (DPAF) 4.2 22:42:51 10° SSE 22:47:19 83° ENE 22:51:51 10° NNW
Cosmos 1437 3.6 22:44:25 10° SSW 22:47:38 53° WNW 22:50:53 10° N
Cosmos 2333 Rocket 2.6 22:44:16 10° NNW 22:49:56 57° NE 22:55:11 12° SE
USA 245 3.7 22:48:29 10° SSW 22:50:49 30° W 22:52:57 10° NW
Cosmos 1862 Rocket 4.4 22:47:17 10° N 22:51:21 36° ENE 22:54:46 13° SE
ATLAS 2AS CENTAUR R/B 4.2 22:48:10 11° SSE 22:53:14 22° ESE 22:58:54 10° ENE
SL-16 R/B 3.6 22:48:59 10° NNW 22:53:59 30° NE 22:58:57 10° ESE
Cosmos 2298 Rocket 4.2 22:50:04 10° S 22:55:14 55° ESE 23:00:27 10° NNE
CARTOSAT-1 3.6 22:54:18 13° SSE 22:58:06 72° ENE 23:02:26 10° N
COSMOS 2428 3.2 22:56:02 10° NW 23:01:34 56° WSW 23:06:47 12° S
Sich 1 3.0 22:57:23 10° S 23:01:49 77° E 23:06:14 10° NNE
YAOGAN 6 4.4 22:59:19 10° SSW 23:02:27 27° W 23:05:34 10° NW
Cosmos 2151 4.2 22:58:37 10° SW 23:02:36 41° WNW 23:06:38 10° N
Cosmos 1633 Rocket 3.0 22:58:24 10° S 23:02:47 75° E 23:07:10 10° NNE
Cosmos 1937 Rocket 4.0 22:58:30 10° S 23:03:19 41° ESE 23:08:11 10° NE
Cosmos 1869 4.1 23:00:59 10° N 23:04:48 38° ENE 23:07:41 16° SE
Cosmos 1455 2.7 23:01:12 10° N 23:04:52 44° ENE 23:07:33 17° SE
ATLAS 5 CENTAUR R/B 4.5 23:01:45 10° W 23:06:07 26° NNW 23:10:47 10° NE
CZ-4C R/B 3.5 23:05:06 13° S 23:08:09 57° WSW 23:11:36 10° NNW
ATLAS 3B R/B 3.3 23:02:04 10° NW 23:09:09 55° NE 23:15:46 10° ESE
Cosmos 2297 Rocket 3.5 23:10:25 15° SE 23:13:28 23° ESE 23:17:46 10° NE
H-2A R/B 2.3 23:10:13 13° S 23:15:01 78° WSW 23:20:30 10° NNW
Lacrosse 4 Rocket 3.0 23:11:31 10° NNW 23:15:27 31° NE 23:19:27 10° ESE
GEOS 3 Rocket 4.3 23:11:25 10° ESE 23:16:26 49° NE 23:21:25 10° NW
Cosmos 1805 Rocket 4.4 23:12:35 10° SSW 23:16:56 51° WNW 23:21:17 10° N
NOSS 3-1 (C) 3.4 23:11:36 10° SSW 23:17:31 67° SE 23:24:09 10° NE
Cosmos 2219 Rocket 2.2 23:12:23 10° NNW 23:17:59 77° WSW 23:22:26 17° SSE
Landsat 7 4.4 23:18:17 12° S 23:22:37 52° W 23:27:17 10° NNW
ARGOS 4.3 23:19:19 10° SSW 23:24:18 37° W 23:29:19 10° NNW
BREEZE-M DEB (TANK) 2.4 23:24:27 10° W 23:26:23 38° SSW 23:27:42 23° SE
Cosmos 2058 4.4 23:24:24 10° SW 23:28:11 35° WNW 23:32:00 10° N
Cosmos 292 Rocket 4.3 23:23:55 10° NNW 23:28:35 53° WSW 23:32:10 16° S
ALOS 2 4.4 23:27:29 10° ESE 23:30:44 21° ENE 23:34:04 10° NNE
Nadezhda 1 Rocket 4.0 23:26:06 10° N 23:32:12 81° W 23:37:15 16° S
Cosmos 1980 3.7 23:27:46 10° NNW 23:33:27 80° WSW 23:37:35 19° SSE
Cosmos 1726 3.9 23:30:44 10° NNW 23:33:57 27° W 23:37:09 10° SSW
SAR-Lupe-2 4.1 23:31:37 18° S 23:34:06 53° WSW 23:37:38 10° NNW
Spot 4 4.0 23:31:38 17° S 23:35:21 70° WSW 23:40:14 10° NNW
Cosmos 1271 Rocket 3.8 23:31:54 10° NNW 23:35:28 39° W 23:38:28 14° SSW
Cosmos 1703 3.5 23:34:08 13° SSW 23:37:37 67° WNW 23:41:33 10° N
Terra 2.4 23:34:39 15° S 23:38:29 52° W 23:43:09 10° NNW
Cosmos 1346 3.0 23:39:16 26° S 23:40:49 73° E 23:43:52 10° NNE
COSMOS 2455 3.1 23:34:56 10° NNW 23:40:59 67° NE 23:45:48 16° SE
Cosmos 2219 3.9 23:35:31 10° SW 23:41:10 56° NW 23:46:51 10° NNE
Spot 2 4.5 23:36:15 10° NNE 23:41:27 83° ESE 23:45:45 14° SSW
Cosmos 1898 Rocket 3.7 23:37:58 10° SSW 23:43:09 74° WNW 23:48:24 10° NNE
Cosmos 2150 Rocket 4.4 23:39:23 10° SSW 23:44:50 72° WNW 23:50:20 10° NNE
CZ-4B R/B 3.6 23:44:09 12° ESE 23:46:10 18° ENE 23:48:35 10° NNE
Cosmos 1048 Rocket 4.5 23:41:08 10° NNW 23:46:24 56° ENE 23:50:14 19° SE
Cosmos 2237 Rocket 2.3 23:40:54 10° NNW 23:46:36 70° WSW 23:50:31 21° SSE
BREEZE-M TANK 4.0 23:32:04 10° WSW 23:48:06 50° S 23:52:07 10° E
Cosmos 1745 Rocket 4.2 23:42:10 10° SSW 23:48:24 72° WNW 23:54:36 10° N
Cosmos 1125 Rocket 4.4 23:46:30 21° SSE 23:49:13 33° ESE 23:53:57 10° NE
DMSP B5D2-2 4.2 23:45:47 10° NNE 23:51:02 74° WNW 23:56:03 11° SSW
USA 234 4.2 23:44:57 10° E 23:51:11 49° N 23:57:26 10° WNW
Cosmos 1703 Rocket 3.8 23:47:46 10° N 23:52:05 60° ENE 23:54:35 24° SSE
Cosmos 1470 Rocket 3.7 23:48:55 15° SSW 23:52:27 69° WNW 23:56:48 10° N
Cosmos 2221 Rocket 3.9 23:48:20 10° N 23:52:52 59° ENE 23:55:32 24° SSE
Cosmos 220 Rocket 4.1 23:48:52 12° SSW 23:52:57 83° WNW 23:57:26 10° NNE
Okean 1-7 3.8 23:49:11 10° N 23:53:15 39° ENE 23:55:37 21° SE
Cosmos 2082 3.8 23:49:10 16° S 23:53:41 59° ESE 23:59:18 10° NE
Cosmos 1933 Rocket 3.8 23:50:13 15° SSW 23:53:54 70° WNW 23:58:22 10° N
